Location: Ergnies
(50.0854°N, 2.0375°E)
Time: 10:09:58
(UTC+00:00)

SL-8 Rocket - Pass Details

Date: 14 January 2026
Orbit: 955 x 990 km, 82.9° (Epoch: 10 February)

Event Time Altitude Azimuth Distance (km) Brightness Sun altitude
Rises 06:48:44 0° 189° (S) 3,689 7.2 -8.9°
Reaches altitude 10° 06:51:15 10° 190° (S) 2,743 6.5 -8.5°
Maximum altitude 06:57:34 84° 279° (W) 998 4.0 -7.6°
Drops below altitude 10° 07:03:53 10° 9° (N) 2,745 6.2 -6.7°
Sets 07:06:25 0° 10° (N) 3,692 6.9 -6.3°
